Location: Bijele Vode
(45.2833°N, 16.2000°E)
Time: 22:34:43
(UTC+00:00)

Cosmos 1125 Rocket - Pass Details

Date: 21 January 2021
Orbit: 757 x 780 km, 74.0° (Epoch: 08 March)

Event Time Altitude Azimuth Distance (km) Brightness Sun altitude
Exits shadow 03:36:32 - 359° (N) 2,962 6.5 -29.6°
Reaches altitude 10° 03:39:45 10° 26° (NNE) 2,335 6.3 -29.1°
Maximum altitude 03:41:27 11° 45° (NE) 2,235 6.4 -28.8°
Drops below altitude 10° 03:43:10 10° 64° (ENE) 2,335 6.8 -28.5°
Sets 03:47:28 0° 97° (E) 3,261 8.0 -27.7°
